Loisir ou Compétition : Rejoignez un Club de la Fédération

Résultats

CHAMPIONNAT REGIONAL INDIVIDUEL

LES FOURGS / LA COUPE

MASS Dames

Jury de Compétition

Délégué Technique :
MICHAUD REMY ()
D.T. Adjoint :
 
Dir. Epreuve :
LANCIA HERVE ()

Caractéristiques de la Piste

Piste :
LA COUPE
Distance :
4 km
Point Haut :
 
Point Bas :
 
Montée Tot. :
 
Montée Max. :
 
Homologation :
2014-49-1

Pénalité Appliquée :
 
Coefficient :
 

Catégorie :
U14
Style :
C

28/02/15 - FMJF0281

CltDosClt/CatCodeAnNom PrénomComClubTempsEcartPoints
12521/U14FFS26656382001GROSREY LOUNAMJHT JURA SKI14:01.900:00.0
22532/U14FFS26614752001REMONNAY NOEMIEMJOYE-PALLET14:21.200:19.3
32553/U14FFS26702012001JEANMONNOT LAURENT PRUNEMJOLYMP MT DOR14:33.000:31.1
42574/U14FFS26715332001COURTET MANONMJA.S MOUTHE14:40.900:39.0
52595/U14FFS26625022001LEGRAND MAUDMJHT JURA SKI14:43.100:41.2
62626/U14FFS26766092002CAT LENAMJSC MONT NOIR14:44.100:42.2
72587/U14FFS26681552002SAVOIE LISAMJHT JURA SKI14:46.700:44.8
82648/U14FFS26652562001CRETIN MAITENAZ JULIEMJSMBM/MORBIER14:55.500:53.6
92639/U14FFS26764522002PAGNIER CLOEMJCHAUX NEUVE14:58.000:56.1
1027110/U14FFS26704572001PARENT CYRIELLEMJDAMPRICHARD14:59.700:57.8
1126611/U14FFS26505622001LANGEL CORALIEMJSC MONT NOIR15:03.301:01.4
1226112/U14FFS26770812002JEANNIER LEONIEMJAS VERRIERES15:04.401:02.5
1325413/U14FFS26766082002FORET JUSTINEMJSC MONT NOIR15:05.501:03.6
1426514/U14FFS26758052002BESANCON ALICEMJOLYMP MT DOR15:10.001:08.1
1526015/U14FFS26657482002LAURENCE COLINEMJCSR PONTARLI15:16.901:15.0
1627216/U14FFS26436652001DUCHAUFOUR EVE ONDINEMJSC GRANDVAUX15:19.501:17.6
1726817/U14FFS26546812001MILLET MARIEMJHT JURA SKI15:20.901:19.0
1826718/U14FFS26711882002PELLEGRINI AUGUSTINEMJOYE-PALLET15:26.601:24.7
1928819/U14FFS26643142002BARON FIONAMJVAL MORTEAU15:40.001:38.1
2029620/U14FFS26773292002SALVI JEANNEMJA.S MOUTHE15:43.801:41.9
2128321/U14FFS26711902002BILLET EMMAMJOYE-PALLET15:44.501:42.6
2227422/U14FFS26657952001NIGGLI NATALJAMJPREMANON SC15:57.701:55.8
2327323/U14FFS26566562001TURMEL SARAHMJVAL MORTEAU15:58.201:56.3
2427024/U14FFS26755602002CHOUARD JULIETTEMJSC GRANDVAUX15:59.401:57.5
2527625/U14FFS26806512002SERRETTE LISAMJSC NOZEROY16:08.302:06.4
2630426/U14FFS26706172002CRETENET LEAMJES SAUGETTE16:21.902:20.0
2728727/U14FFS26758042002HAUCK MELISSAMJOLYMP MT DOR16:22.702:20.8
2825628/U14FFS26697862001TOURNIER ROMANEMJSC GRANDVAUX16:24.302:22.4
2928229/U14FFS26707922001LECHAT MELANIEMJSC NOZEROY16:27.602:25.7
3026930/U14FFS26711872002LAHEURTE PERRINEMJOYE-PALLET16:31.202:29.3
3127731/U14FFS26660782001MAUGAIN HELENEMJES SAUGETTE16:34.902:33.0
3228132/U14FFS26764422002BLONDEAU ANNAMJCHAUX NEUVE16:44.802:42.9
3329033/U14FFS26711892002DESCOURVIERES EMILIEMJOYE-PALLET16:46.402:44.5
3428034/U14FFS26646042001KAUTEN VICTORIAMJSKI ROUSSES16:48.002:46.1
3528435/U14FFS26695292002MOUGIN THEAMJPREMANON SC16:49.002:47.1
3629336/U14FFS26711842002BESANCENET ZELIEMJOYE-PALLET17:07.503:05.6
3729837/U14FFS26735402001CIGLIA CARMENMJVAL MORTEAU17:09.103:07.2
3827938/U14FFS26769842002DUSSAUSSOY EMMAMJVAL MORTEAU17:11.403:09.5
3927539/U14FFS26698812001ARDIET CAMILLEMJOLYMP MT DOR17:16.803:14.9
4030340/U14FFS26785832002BOUVERET MARIONMJBOIS D'AMONT17:23.103:21.2
4129941/U14FFS26798892002CORDIER LOLAMJA.S MOUTHE17:46.203:44.3
4228542/U14FFS26720352001DECOL LAURINEMJVAL MORTEAU17:46.503:44.6
4328943/U14FFS26766102002BURRI CAMILLEMJSC MONT NOIR17:47.103:45.2
4428644/U14FFS26762252002GIRAUD CLARAMJPREMANON SC17:47.703:45.8
4529445/U14FFS26755822002GAUDET ADELIEMJOLYMP MT DOR17:58.603:56.7
4629146/U14FFS26711922002MONIER AMANDINEMJOYE-PALLET18:07.404:05.5
4729747/U14FFS26713772002GAGELIN AGATHEMJES SAUGETTE18:07.804:05.9
4830248/U14FFS26558912002GUYON ANNAMJSKI ROUSSES18:24.704:22.8
4929549/U14FFS26769822002RENAUD LIVMJDAMPRICHARD19:16.005:14.1
5029250/U14FFS26711832002MOREAU JEANNEMJOYE-PALLET20:38.906:37.0
Abandons
278FFS26766112002COURVOISIER CELIAMJSC MONT NOIR
Non partants
300FFS26716032002TOURNIER FLAVIEMJES SAUGETTE